QPF
0.03 0.03 0.03 0.03 0.02 0.02 0.02 0.02 0.02 0.01 0.01 0.02 0.02 0.02 0.02 0.02 0.01 0.01 0.01 0.04 0.06 0.07 0.07 0.05 0.03 0.01 0.01 0.02 0.03 0.05 0.05 0.06 0.06 0.07 0.07 0.06 0.06 0.06
0.01 0.01 0.02 0.02 0.02 0.02 0.02 0.01 0.01 0.02 0.02 0.02 0.02 0.02 0.01 0.01 0.01 0.01 0.01 0.02 0.04 0.04 0.05 0.04 0.03 0.02 0.01 0.02 0.02 0.04 0.04 0.04 0.05 0.05 0.05 0.05 0.05 0.05
0.01 0.01 0.02 0.01 0.02 0.01 0.01 0.01 0.01 0.02 0.01 0.01 0.01 0.02 0.02 0.02 0.01 0.01 0.02 0.02 0.03 0.03 0.02 0.01 0.02 0.02 0.02 0.02 0.02 0.02 0.02 0.02 0.02 0.02 0.02 0.02 0.01 0.01
0.00 0.01 0.01 0.02 0.02 0.01 0.01 0.01 0.01 0.01 0.01 0.01 0.01 0.02 0.03 0.03 0.02 0.03 0.03 0.03 0.02 0.03 0.02 0.02 0.02 0.02 0.02 0.02 0.01 0.01 0.01 0.01 0.01 0.01 0.01 0.01 0.01 0.01
0.01 0.01 0.01 0.02 0.02 0.02 0.01 0.01 0.01 0.01 0.01 0.02 0.03 0.03 0.03 0.04 0.03 0.04 0.03 0.03 0.02 0.03 0.03 0.02 0.02 0.02 0.03 0.03 0.02 0.01 0.01 0.00 0.00 0.00 0.00 0.00 0.00 0.00
0.01 0.01 0.01 0.01 0.02 0.02 0.02 0.02 0.01 0.01 0.01 0.02 0.03 0.03 0.03 0.04 0.05 0.04 0.03 0.02 0.02 0.02 0.03 0.04 0.03 0.03 0.03 0.03 0.02 0.01 0.01 0.00 0.00 0.00 0.00 0.00 0.00 0.00
0.01 0.01 0.01 0.01 0.01 0.01 0.01 0.01 0.01 0.00 0.00 0.01 0.01 0.02 0.01 0.04 0.06 0.04 0.02 0.01 0.01 0.01 0.01 0.02 0.04 0.05 0.04 0.03 0.02 0.01 0.01 0.00 0.00 0.00 0.01 0.01 0.01 0.00
0.01 0.01 0.01 0.01 0.01 0.01 0.00 0.00 0.00 0.00 0.00 0.01 0.00 0.00 0.00 0.02 0.02 0.02 0.01 0.01 0.01 0.02 0.01 0.02 0.03 0.03 0.03 0.03 0.02 0.01 0.01 0.00 0.00 0.01 0.01 0.01 0.01 0.01
0.02 0.02 0.01 0.01 0.01 0.01 0.01 0.01 0.01 0.00 0.00 0.00 0.00 0.00 0.01 0.01 0.01 0.03 0.03 0.01 0.01 0.02 0.02 0.02 0.02 0.01 0.01 0.01 0.01 0.01 0.00 0.00 0.00 0.01 0.01 0.01 0.01 0.02
0.02 0.02 0.02 0.01 0.02 0.02 0.01 0.01 0.01 0.01 0.01 0.01 0.01 0.01 0.02 0.02 0.03 0.02 0.02 0.02 0.01 0.01 0.01 0.01 0.01 0.01 0.01 0.01 0.01 0.01 0.01 0.01 0.01 0.01 0.01 0.01 0.02 0.02
0.02 0.02 0.02 0.01 0.01 0.01 0.01 0.01 0.01 0.01 0.01 0.01 0.01 0.01 0.02 0.03 0.03 0.03 0.02 0.02 0.02 0.02 0.02 0.02 0.02 0.02 0.02 0.02 0.01 0.01 0.01 0.01 0.01 0.01 0.01 0.01 0.01 0.01
0.04 0.03 0.03 0.02 0.01 0.01 0.01 0.00 0.01 0.01 0.01 0.01 0.01 0.01 0.02 0.02 0.03 0.03 0.03 0.04 0.04 0.03 0.03 0.04 0.04 0.05 0.04 0.03 0.02 0.01 0.01 0.01 0.01 0.01 0.01 0.01 0.01 0.01
0.04 0.04 0.03 0.02 0.02 0.01 0.01 0.01 0.01 0.01 0.01 0.01 0.01 0.01 0.02 0.02 0.03 0.03 0.04 0.04 0.05 0.05 0.05 0.05 0.05 0.05 0.05 0.04 0.02 0.02 0.01 0.01 0.01 0.02 0.02 0.02 0.02 0.01
0.02 0.02 0.02 0.02 0.02 0.03 0.02 0.01 0.01 0.01 0.01 0.01 0.02 0.02 0.03 0.04 0.04 0.04 0.06 0.07 0.08 0.08 0.08 0.08 0.08 0.08 0.07 0.05 0.03 0.02 0.02 0.01 0.01 0.01 0.01 0.03 0.03 0.03
0.01 0.02 0.03 0.02 0.03 0.03 0.03 0.03 0.02 0.01 0.01 0.02 0.02 0.02 0.02 0.03 0.05 0.06 0.08 0.09 0.10 0.11 0.11 0.09 0.07 0.07 0.06 0.05 0.04 0.03 0.02 0.02 0.01 0.01 0.01 0.01 0.02 0.03
0.01 0.02 0.02 0.02 0.03 0.03 0.03 0.02 0.02 0.02 0.02 0.02 0.01 0.01 0.01 0.01 0.02 0.03 0.05 0.05 0.06 0.07 0.06 0.05 0.05 0.05 0.05 0.05 0.05 0.05 0.03 0.02 0.01 0.01 0.01 0.02 0.02 0.02
0.01 0.01 0.01 0.01 0.02 0.03 0.02 0.01 0.01 0.02 0.02 0.02 0.02 0.02 0.02 0.03 0.03 0.03 0.03 0.04 0.05 0.04 0.04 0.04 0.03 0.03 0.03 0.03 0.03 0.03 0.02 0.02 0.01 0.01 0.01 0.02 0.02 0.02
0.02 0.02 0.02 0.02 0.02 0.02 0.02 0.02 0.02 0.02 0.02 0.02 0.02 0.02 0.03 0.02 0.02 0.02 0.02 0.02 0.03 0.03 0.03 0.03 0.03 0.02 0.02 0.02 0.02 0.02 0.02 0.02 0.02 0.01 0.01 0.02 0.02 0.02
0.03 0.03 0.04 0.04 0.04 0.05 0.04 0.04 0.03 0.02 0.02 0.02 0.02 0.02 0.02 0.02 0.02 0.01 0.01 0.01 0.02 0.02 0.02 0.02 0.02 0.02 0.02 0.02 0.02 0.02 0.03 0.03 0.03 0.03 0.03 0.03 0.02 0.02
0.03 0.03 0.04 0.04 0.04 0.04 0.04 0.04 0.05 0.04 0.03 0.02 0.03 0.03 0.03 0.03 0.03 0.02 0.02 0.02 0.02 0.02 0.02 0.02 0.03 0.04 0.04 0.04 0.04 0.03 0.03 0.03 0.04 0.04 0.04 0.03 0.03 0.04
0.03 0.04 0.04 0.05 0.05 0.04 0.04 0.05 0.05 0.05 0.04 0.04 0.04 0.05 0.05 0.04 0.04 0.04 0.03 0.03 0.03 0.03 0.03 0.03 0.04 0.06 0.05 0.04 0.04 0.04 0.04 0.04 0.05 0.06 0.06 0.06 0.05 0.05
0.04 0.04 0.05 0.06 0.05 0.04 0.04 0.05 0.05 0.05 0.05 0.05 0.06 0.06 0.06 0.06 0.05 0.06 0.05 0.05 0.05 0.05 0.05 0.05 0.07 0.07 0.07 0.07 0.06 0.06 0.06 0.07 0.08 0.08 0.08 0.06 0.06 0.06
0.04 0.04 0.06 0.06 0.05 0.05 0.05 0.05 0.05 0.05 0.05 0.05 0.06 0.07 0.07 0.06 0.06 0.07 0.08 0.08 0.09 0.09 0.09 0.08 0.08 0.08 0.08 0.08 0.09 0.09 0.08 0.08 0.09 0.09 0.09 0.09 0.06 0.04
MSLP
1016.46 1016.62 1016.75 1016.81 1016.81 1016.72 1016.58 1016.38 1016.18 1015.98 1015.81 1015.69 1015.60 1015.52 1015.44 1015.32 1015.14 1014.91 1014.61 1014.29 1013.96 1013.66 1013.41 1013.23 1013.11 1013.05 1013.03 1013.02 1013.02 1013.00 1012.97 1012.95 1012.95 1012.97 1013.04 1013.14 1013.27 1013.39
1016.99 1017.13 1017.22 1017.25 1017.21 1017.10 1016.94 1016.76 1016.58 1016.42 1016.29 1016.21 1016.15 1016.08 1016.00 1015.86 1015.65 1015.36 1015.01 1014.63 1014.24 1013.89 1013.59 1013.36 1013.20 1013.10 1013.04 1012.99 1012.94 1012.88 1012.81 1012.75 1012.71 1012.70 1012.74 1012.82 1012.93 1013.04
1017.52 1017.66 1017.73 1017.74 1017.68 1017.55 1017.39 1017.22 1017.06 1016.93 1016.83 1016.77 1016.73 1016.68 1016.58 1016.41 1016.16 1015.82 1015.42 1014.98 1014.55 1014.14 1013.80 1013.53 1013.33 1013.19 1013.09 1013.00 1012.91 1012.80 1012.69 1012.59 1012.51 1012.47 1012.47 1012.52 1012.61 1012.71
1018.05 1018.19 1018.26 1018.26 1018.19 1018.07 1017.91 1017.75 1017.60 1017.49 1017.41 1017.37 1017.32 1017.26 1017.14 1016.94 1016.65 1016.28 1015.83 1015.35 1014.87 1014.42 1014.04 1013.73 1013.50 1013.33 1013.19 1013.06 1012.92 1012.78 1012.62 1012.46 1012.34 1012.25 1012.21 1012.23 1012.29 1012.37
1018.56 1018.71 1018.79 1018.80 1018.73 1018.62 1018.47 1018.31 1018.17 1018.06 1017.99 1017.93 1017.88 1017.80 1017.65 1017.43 1017.11 1016.70 1016.22 1015.71 1015.21 1014.74 1014.33 1014.00 1013.74 1013.53 1013.35 1013.18 1013.00 1012.80 1012.58 1012.38 1012.19 1012.05 1011.96 1011.94 1011.96 1012.03
1019.04 1019.20 1019.29 1019.31 1019.25 1019.14 1019.00 1018.85 1018.71 1018.59 1018.50 1018.43 1018.36 1018.25 1018.09 1017.84 1017.50 1017.08 1016.60 1016.08 1015.57 1015.10 1014.68 1014.33 1014.05 1013.81 1013.58 1013.36 1013.13 1012.87 1012.60 1012.32 1012.08 1011.87 1011.73 1011.66 1011.65 1011.69
1019.45 1019.62 1019.72 1019.75 1019.71 1019.61 1019.47 1019.31 1019.16 1019.03 1018.93 1018.83 1018.74 1018.61 1018.42 1018.17 1017.83 1017.42 1016.95 1016.45 1015.95 1015.49 1015.07 1014.71 1014.40 1014.13 1013.87 1013.59 1013.30 1012.98 1012.65 1012.31 1012.00 1011.74 1011.54 1011.42 1011.37 1011.37
1019.80 1019.97 1020.07 1020.10 1020.07 1019.97 1019.83 1019.67 1019.51 1019.36 1019.23 1019.12 1019.00 1018.86 1018.67 1018.42 1018.09 1017.71 1017.27 1016.80 1016.33 1015.88 1015.47 1015.11 1014.78 1014.47 1014.16 1013.84 1013.49 1013.12 1012.73 1012.34 1011.98 1011.66 1011.41 1011.24 1011.14 1011.11
1020.08 1020.23 1020.33 1020.36 1020.32 1020.22 1020.08 1019.91 1019.74 1019.58 1019.43 1019.30 1019.17 1019.02 1018.84 1018.60 1018.31 1017.95 1017.55 1017.11 1016.67 1016.24 1015.84 1015.46 1015.11 1014.77 1014.43 1014.06 1013.67 1013.26 1012.83 1012.40 1012.00 1011.64 1011.35 1011.13 1010.99 1010.92
1020.29 1020.42 1020.49 1020.51 1020.47 1020.37 1020.22 1020.04 1019.86 1019.69 1019.53 1019.40 1019.26 1019.12 1018.95 1018.73 1018.47 1018.15 1017.78 1017.38 1016.96 1016.54 1016.14 1015.75 1015.37 1015.00 1014.63 1014.23 1013.81 1013.38 1012.93 1012.48 1012.06 1011.68 1011.37 1011.12 1010.94 1010.82
1020.43 1020.53 1020.59 1020.59 1020.54 1020.43 1020.27 1020.10 1019.91 1019.73 1019.58 1019.44 1019.31 1019.17 1019.02 1018.83 1018.59 1018.29 1017.95 1017.57 1017.16 1016.74 1016.33 1015.92 1015.53 1015.13 1014.73 1014.32 1013.90 1013.46 1013.01 1012.57 1012.16 1011.78 1011.46 1011.19 1010.98 1010.82
1020.51 1020.58 1020.62 1020.61 1020.55 1020.43 1020.27 1020.09 1019.91 1019.74 1019.58 1019.44 1019.32 1019.20 1019.06 1018.88 1018.66 1018.38 1018.05 1017.68 1017.27 1016.85 1016.42 1015.99 1015.57 1015.16 1014.75 1014.33 1013.92 1013.49 1013.07 1012.66 1012.27 1011.91 1011.59 1011.31 1011.08 1010.88
1020.55 1020.60 1020.62 1020.59 1020.52 1020.40 1020.24 1020.06 1019.88 1019.70 1019.55 1019.42 1019.31 1019.19 1019.06 1018.90 1018.68 1018.41 1018.09 1017.71 1017.29 1016.86 1016.41 1015.96 1015.53 1015.10 1014.69 1014.29 1013.89 1013.49 1013.10 1012.73 1012.37 1012.03 1011.72 1011.45 1011.20 1010.97
1020.54 1020.58 1020.59 1020.56 1020.47 1020.35 1020.18 1020.00 1019.82 1019.64 1019.49 1019.37 1019.26 1019.15 1019.02 1018.87 1018.66 1018.39 1018.06 1017.68 1017.26 1016.80 1016.34 1015.88 1015.43 1015.00 1014.59 1014.20 1013.83 1013.46 1013.11 1012.77 1012.43 1012.12 1011.82 1011.54 1011.27 1011.03
1020.50 1020.54 1020.54 1020.50 1020.41 1020.27 1020.10 1019.91 1019.73 1019.55 1019.40 1019.27 1019.16 1019.06 1018.94 1018.79 1018.58 1018.32 1017.99 1017.61 1017.18 1016.72 1016.25 1015.78 1015.33 1014.90 1014.49 1014.11 1013.75 1013.41 1013.08 1012.75 1012.44 1012.13 1011.83 1011.53 1011.25 1010.97
1020.44 1020.48 1020.48 1020.43 1020.33 1020.18 1019.99 1019.79 1019.59 1019.41 1019.25 1019.12 1019.01 1018.91 1018.80 1018.66 1018.46 1018.21 1017.89 1017.52 1017.10 1016.64 1016.17 1015.70 1015.25 1014.82 1014.41 1014.04 1013.68 1013.34 1013.01 1012.68 1012.36 1012.03 1011.71 1011.39 1011.07 1010.76
1020.34 1020.38 1020.38 1020.32 1020.20 1020.03 1019.83 1019.61 1019.40 1019.20 1019.04 1018.91 1018.80 1018.70 1018.60 1018.47 1018.30 1018.07 1017.77 1017.42 1017.01 1016.58 1016.12 1015.66 1015.21 1014.77 1014.36 1013.98 1013.61 1013.25 1012.89 1012.54 1012.18 1011.82 1011.45 1011.08 1010.72 1010.36
1020.19 1020.23 1020.22 1020.15 1020.01 1019.82 1019.60 1019.36 1019.13 1018.92 1018.75 1018.61 1018.51 1018.42 1018.34 1018.23 1018.08 1017.88 1017.62 1017.30 1016.93 1016.52 1016.08 1015.63 1015.18 1014.74 1014.32 1013.91 1013.52 1013.12 1012.72 1012.32 1011.91 1011.49 1011.06 1010.63 1010.21 1009.79
1019.97 1020.00 1019.97 1019.88 1019.72 1019.51 1019.26 1019.01 1018.76 1018.54 1018.36 1018.23 1018.13 1018.06 1017.99 1017.91 1017.80 1017.64 1017.42 1017.14 1016.81 1016.43 1016.01 1015.58 1015.14 1014.70 1014.26 1013.83 1013.39 1012.95 1012.50 1012.04 1011.57 1011.08 1010.58 1010.08 1009.59 1009.12
1019.62 1019.64 1019.59 1019.47 1019.29 1019.06 1018.80 1018.52 1018.27 1018.05 1017.87 1017.74 1017.65 1017.60 1017.56 1017.51 1017.43 1017.31 1017.13 1016.90 1016.60 1016.26 1015.88 1015.47 1015.04 1014.59 1014.14 1013.68 1013.21 1012.74 1012.24 1011.73 1011.20 1010.65 1010.09 1009.52 1008.96 1008.42
1019.13 1019.12 1019.05 1018.90 1018.70 1018.45 1018.18 1017.90 1017.65 1017.43 1017.25 1017.13 1017.06 1017.02 1017.01 1016.98 1016.94 1016.85 1016.72 1016.53 1016.28 1015.97 1015.62 1015.24 1014.82 1014.39 1013.94 1013.47 1012.98 1012.48 1011.95 1011.41 1010.84 1010.25 1009.64 1009.03 1008.41 1007.81
1018.46 1018.43 1018.33 1018.16 1017.95 1017.69 1017.41 1017.14 1016.89 1016.68 1016.52 1016.41 1016.35 1016.33 1016.33 1016.32 1016.30 1016.25 1016.15 1016.00 1015.79 1015.53 1015.22 1014.87 1014.48 1014.07 1013.63 1013.17 1012.69 1012.19 1011.66 1011.11 1010.53 1009.93 1009.31 1008.67 1008.02 1007.38
1017.65 1017.58 1017.45 1017.27 1017.05 1016.79 1016.53 1016.27 1016.03 1015.84 1015.69 1015.59 1015.54 1015.52 1015.53 1015.54 1015.53 1015.50 1015.43 1015.31 1015.14 1014.92 1014.65 1014.35 1014.00 1013.63 1013.23 1012.80 1012.35 1011.88 1011.38 1010.86 1010.30 1009.72 1009.11 1008.48 1007.83 1007.18
Thickness
5739 5737 5735 5733 5731 5728 5725 5722 5716 5709 5707 5707 5707 5706 5704 5703 5701 5699 5697 5695 5694 5692 5691 5690 5689 5688 5687 5686 5684 5683 5680 5679 5677 5674 5672 5671 5669 5667
5738 5736 5734 5733 5730 5728 5725 5721 5718 5713 5707 5706 5704 5703 5701 5700 5697 5695 5693 5692 5690 5688 5687 5686 5685 5683 5682 5680 5678 5676 5674 5672 5670 5668 5666 5664 5663 5661
5736 5734 5732 5731 5728 5726 5723 5720 5716 5713 5707 5704 5702 5700 5697 5696 5694 5692 5690 5688 5686 5684 5682 5681 5680 5678 5677 5675 5673 5671 5668 5666 5664 5661 5659 5658 5656 5655
5735 5733 5730 5729 5726 5724 5721 5718 5714 5711 5707 5702 5699 5696 5694 5692 5690 5688 5686 5684 5682 5680 5679 5677 5675 5673 5671 5669 5667 5665 5663 5660 5658 5655 5653 5651 5650 5648
5733 5731 5729 5727 5723 5721 5718 5715 5712 5709 5705 5701 5696 5693 5690 5688 5685 5683 5681 5679 5678 5676 5674 5672 5670 5668 5666 5663 5661 5659 5656 5654 5652 5649 5647 5645 5643 5641
5731 5729 5727 5725 5722 5719 5716 5712 5708 5705 5701 5697 5693 5689 5686 5684 5681 5678 5676 5675 5673 5672 5669 5667 5665 5662 5660 5658 5655 5653 5650 5648 5645 5643 5641 5639 5637 5634
5728 5726 5724 5723 5720 5718 5714 5710 5706 5701 5697 5693 5689 5686 5682 5679 5677 5674 5672 5669 5667 5666 5664 5662 5659 5657 5654 5652 5649 5647 5644 5642 5640 5637 5634 5632 5630 5628
5725 5723 5721 5719 5717 5715 5712 5709 5705 5700 5695 5690 5686 5683 5680 5677 5674 5671 5667 5664 5663 5661 5658 5657 5654 5652 5650 5647 5645 5642 5639 5637 5634 5632 5629 5627 5624 5622
5722 5719 5718 5716 5714 5711 5708 5704 5701 5698 5695 5690 5685 5682 5679 5676 5672 5668 5664 5662 5660 5658 5653 5652 5650 5648 5646 5644 5641 5638 5635 5632 5630 5627 5624 5621 5619 5616
5718 5716 5713 5711 5709 5706 5703 5699 5696 5694 5690 5687 5684 5681 5678 5675 5671 5667 5663 5659 5656 5653 5649 5647 5646 5644 5643 5640 5637 5634 5631 5628 5626 5623 5620 5617 5614 5611
5714 5712 5710 5707 5704 5701 5697 5694 5691 5689 5686 5683 5680 5678 5675 5671 5667 5662 5658 5654 5651 5649 5645 5643 5642 5639 5637 5636 5634 5631 5628 5625 5622 5619 5615 5612 5609 5606
5708 5707 5704 5702 5699 5695 5692 5688 5685 5683 5681 5678 5675 5673 5670 5666 5663 5659 5655 5650 5647 5645 5643 5639 5637 5633 5633 5632 5629 5626 5624 5621 5618 5614 5611 5608 5604 5600
5703 5701 5699 5695 5692 5689 5686 5684 5681 5678 5675 5672 5670 5667 5664 5661 5657 5654 5650 5647 5643 5641 5639 5634 5632 5629 5627 5626 5624 5621 5619 5616 5613 5610 5606 5603 5600 5596
5697 5695 5693 5689 5686 5683 5680 5678 5675 5671 5668 5665 5663 5660 5658 5655 5652 5649 5646 5643 5640 5638 5635 5630 5627 5624 5621 5619 5617 5616 5613 5610 5607 5605 5602 5599 5595 5592
5691 5689 5686 5683 5679 5676 5674 5671 5668 5664 5661 5658 5656 5654 5652 5649 5646 5643 5641 5637 5634 5631 5628 5625 5622 5619 5616 5614 5612 5609 5607 5605 5602 5599 5597 5594 5591 5588
5684 5681 5678 5675 5672 5669 5666 5664 5660 5658 5655 5652 5650 5647 5645 5642 5639 5636 5633 5631 5628 5627 5623 5620 5617 5614 5611 5609 5607 5605 5603 5600 5598 5594 5592 5590 5587 5584
5677 5673 5670 5667 5664 5661 5659 5656 5653 5650 5647 5644 5641 5639 5637 5634 5631 5629 5625 5623 5621 5620 5618 5614 5610 5608 5606 5604 5602 5601 5598 5596 5593 5589 5586 5585 5583 5581
5670 5666 5663 5660 5657 5654 5652 5650 5647 5644 5641 5638 5635 5632 5630 5627 5624 5621 5618 5615 5614 5612 5610 5607 5603 5600 5599 5598 5596 5596 5594 5592 5589 5585 5582 5580 5580 5578
5662 5660 5657 5654 5651 5648 5646 5643 5640 5638 5634 5631 5628 5625 5622 5619 5617 5614 5611 5608 5606 5604 5602 5599 5596 5594 5594 5595 5595 5590 5588 5586 5583 5580 5578 5576 5576 5575
5655 5653 5651 5648 5645 5642 5639 5636 5634 5631 5627 5623 5620 5617 5614 5612 5609 5607 5604 5601 5600 5597 5595 5593 5591 5589 5588 5589 5588 5586 5582 5580 5578 5576 5574 5571 5570 5568
5649 5646 5643 5640 5637 5635 5632 5629 5626 5623 5619 5616 5612 5609 5607 5605 5602 5600 5598 5594 5591 5590 5589 5588 5586 5583 5580 5579 5579 5579 5577 5574 5572 5571 5569 5566 5565 5563
5643 5639 5637 5633 5630 5628 5625 5621 5618 5615 5611 5607 5604 5602 5600 5597 5595 5593 5590 5588 5586 5584 5582 5581 5579 5576 5574 5573 5573 5572 5571 5568 5565 5563 5562 5561 5560 5560
5635 5633 5630 5627 5624 5620 5617 5614 5611 5607 5604 5600 5597 5594 5592 5589 5587 5585 5583 5581 5579 5577 5575 5573 5571 5569 5568 5567 5565 5564 5563 5562 5560 5558 5556 5555 5554 5553